Time,TemperatureF,DewpointF,PressureIn,WindDirection,WindDirectionDegrees,WindSpeedMPH,WindSpeedGustMPH,Humidity,HourlyPrecipIn,Conditions,Clouds,dailyrainin,SoftwareType,DateUTC
2013-12-04 00:21:00,39.0,30.0,29.89,NW,310,1.0,4.0,69,0.00,,,0.00,,2013-12-04 08:21:00,
2013-12-04 00:42:00,38.0,29.0,29.90,North,0,0.0,1.0,69,0.00,,,0.00,,2013-12-04 08:42:00,
2013-12-04 00:52:00,38.0,29.0,29.90,NW,312,1.0,2.0,70,0.00,,,0.00,,2013-12-04 08:52:00,
2013-12-04 01:21:00,36.0,27.0,29.91,East,87,2.0,8.0,70,0.00,,,0.00,,2013-12-04 09:21:00,
2013-12-04 01:53:00,33.0,27.0,29.92,SW,226,4.0,6.0,79,0.00,,,0.00,,2013-12-04 09:53:00,
2013-12-04 02:23:00,33.0,28.0,29.93,SW,218,3.0,5.0,80,0.00,,,0.00,,2013-12-04 10:23:00,
2013-12-04 02:53:00,33.0,27.0,29.94,SW,215,1.0,4.0,79,0.00,,,0.00,,2013-12-04 10:53:00,
2013-12-04 03:22:00,35.0,28.0,29.94,NE,56,1.0,3.0,74,0.00,,,0.00,,2013-12-04 11:22:00,
2013-12-04 03:53:00,34.0,27.0,29.94,NNE,15,1.0,3.0,74,0.00,,,0.00,,2013-12-04 11:53:00,
2013-12-04 04:21:00,33.0,26.0,29.95,SW,231,1.0,4.0,74,0.00,,,0.00,,2013-12-04 12:21:00,
2013-12-04 04:42:00,32.0,25.0,29.95,WSW,252,1.0,3.0,76,0.00,,,0.00,,2013-12-04 12:42:00,
2013-12-04 04:52:00,32.0,26.0,29.96,SW,216,3.0,5.0,79,0.00,,,0.00,,2013-12-04 12:52:00,
2013-12-04 05:22:00,32.0,26.0,29.97,North,0,0.0,3.0,79,0.00,,,0.00,,2013-12-04 13:22:00,
2013-12-04 05:42:00,32.0,26.0,29.98,SW,216,3.0,5.0,79,0.00,,,0.00,,2013-12-04 13:42:00,
2013-12-04 05:52:00,33.0,27.0,29.98,SW,218,2.0,4.0,78,0.00,,,0.00,,2013-12-04 13:52:00,
2013-12-04 06:21:00,32.0,26.0,29.99,SW,223,4.0,6.0,77,0.00,,,0.00,,2013-12-04 14:21:00,
2013-12-04 06:42:00,32.0,26.0,30.00,SW,216,4.0,8.0,78,0.00,,,0.00,,2013-12-04 14:42:00,
2013-12-04 06:52:00,31.0,25.0,30.01,SW,226,5.0,9.0,79,0.00,,,0.00,,2013-12-04 14:52:00,
2013-12-04 07:22:00,31.0,26.0,30.02,SW,235,4.0,8.0,81,0.00,,,0.00,,2013-12-04 15:22:00,
2013-12-04 07:43:00,31.0,26.0,30.03,SW,226,4.0,6.0,80,0.00,,,0.00,,2013-12-04 15:43:00,
2013-12-04 07:53:00,31.0,26.0,30.03,SW,226,5.0,7.0,81,0.00,,,0.00,,2013-12-04 15:53:00,
2013-12-04 08:23:00,33.0,28.0,30.04,SW,224,4.0,6.0,81,0.00,,,0.00,,2013-12-04 16:23:00,
2013-12-04 08:43:00,35.0,29.0,30.05,SW,233,2.0,6.0,78,0.00,,,0.00,,2013-12-04 16:43:00,
2013-12-04 08:53:00,37.0,30.0,30.05,WSW,237,2.0,6.0,76,0.00,,,0.00,,2013-12-04 16:53:00,
2013-12-04 09:22:00,41.0,31.0,30.06,SW,232,3.0,5.0,67,0.00,,,0.00,,2013-12-04 17:22:00,
2013-12-04 09:52:00,44.0,29.0,30.08,SW,223,4.0,6.0,56,0.00,,,0.00,,2013-12-04 17:52:00,
2013-12-04 10:21:00,46.0,26.0,30.08,West,277,4.0,6.0,46,0.00,,,0.00,,2013-12-04 18:21:00,
2013-12-04 10:52:00,47.0,26.0,30.08,NNW,333,5.0,8.0,43,0.00,,,0.00,,2013-12-04 18:52:00,
2013-12-04 11:21:00,48.0,25.0,30.08,NNW,336,5.0,10.0,41,0.00,,,0.00,,2013-12-04 19:21:00,
2013-12-04 11:52:00,49.0,26.0,30.07,NNW,333,5.0,12.0,40,0.00,,,0.00,,2013-12-04 19:52:00,
2013-12-04 12:22:00,50.0,25.0,30.06,NW,317,9.0,12.0,38,0.00,,,0.00,,2013-12-04 20:22:00,
2013-12-04 12:52:00,50.0,25.0,30.06,NW,321,6.0,12.0,38,0.00,,,0.00,,2013-12-04 20:52:00,
2013-12-04 13:21:00,51.0,26.0,30.04,NNE,17,7.0,13.0,37,0.00,,,0.00,,2013-12-04 21:21:00,
2013-12-04 13:54:00,51.0,26.0,30.03,NNE,13,5.0,10.0,37,0.00,,,0.00,,2013-12-04 21:54:00,
2013-12-04 14:23:00,51.0,24.0,30.01,NNE,30,4.0,8.0,34,0.00,,,0.00,,2013-12-04 22:23:00,
2013-12-04 14:43:00,52.0,25.0,30.01,NE,44,5.0,11.0,34,0.00,,,0.00,,2013-12-04 22:43:00,
2013-12-04 14:53:00,52.0,23.0,30.01,NNE,28,4.0,9.0,32,0.00,,,0.00,,2013-12-04 22:53:00,
2013-12-04 15:22:00,52.0,22.0,30.01,North,9,3.0,6.0,31,0.00,,,0.00,,2013-12-04 23:22:00,
2013-12-04 15:53:00,51.0,22.0,30.01,North,354,3.0,6.0,32,0.00,,,0.00,,2013-12-04 23:53:00,
2013-12-04 16:22:00,50.0,23.0,30.01,NNE,22,3.0,4.0,35,0.00,,,0.00,,2013-12-05 00:22:00,
2013-12-04 16:52:00,47.0,22.0,30.01,North,350,2.0,5.0,37,0.00,,,0.00,,2013-12-05 00:52:00,
2013-12-04 17:21:00,45.0,23.0,30.01,North,355,2.0,3.0,42,0.00,,,0.00,,2013-12-05 01:21:00,
2013-12-04 17:42:00,45.0,24.0,30.00,North,355,1.0,2.0,43,0.00,,,0.00,,2013-12-05 01:42:00,
2013-12-04 17:52:00,44.0,23.0,30.01,North,355,2.0,3.0,44,0.00,,,0.00,,2013-12-05 01:52:00,
2013-12-04 18:21:00,42.0,23.0,30.01,North,355,2.0,3.0,47,0.00,,,0.00,,2013-12-05 02:21:00,
2013-12-04 19:21:00,38.0,21.0,30.03,North,0,0.0,3.0,50,0.00,,,0.00,,2013-12-05 03:21:00,
2013-12-04 19:54:00,36.0,22.0,30.03,East,88,2.0,4.0,56,0.00,,,0.00,,2013-12-05 03:54:00,
2013-12-04 20:23:00,33.0,23.0,30.04,East,95,1.0,4.0,65,0.00,,,0.00,,2013-12-05 04:23:00,
2013-12-04 20:53:00,32.0,22.0,30.04,North,0,0.0,0.0,66,0.00,,,0.00,,2013-12-05 04:53:00,
2013-12-04 21:22:00,31.0,22.0,30.05,NNE,13,1.0,3.0,69,0.00,,,0.00,,2013-12-05 05:22:00,
2013-12-04 21:43:00,30.0,20.0,30.06,North,4,2.0,3.0,67,0.00,,,0.00,,2013-12-05 05:43:00,
2013-12-04 21:52:00,30.0,21.0,30.06,NW,326,2.0,3.0,68,0.00,,,0.00,,2013-12-05 05:52:00,
2013-12-04 22:02:00,30.0,21.0,30.06,NW,326,2.0,3.0,68,0.00,,,0.00,,2013-12-05 06:02:00,
2013-12-04 22:52:00,30.0,24.0,30.07,ESE,120,5.0,7.0,79,0.00,,,0.00,,2013-12-05 06:52:00,
2013-12-04 23:21:00,29.0,23.0,30.07,SW,226,2.0,5.0,79,0.00,,,0.00,,2013-12-05 07:21:00,
2013-12-04 23:52:00,27.0,21.0,30.07,SSW,199,2.0,4.0,78,0.00,,,0.00,,2013-12-05 07:52:00,